Burlington, CO

7:42 PM MDT on July 27, 2017 (GMT -0600)
Kit Carson County

Weather History for KITR - January, 2012

Change the Weather History Date:

Friday, January 13, 2012

  Actual Average Record
Temperature  
Mean Temperature 33 °F 29 °F  
Max Temperature 49 °F 42 °F 70 °F (1928)
Min Temperature 16 °F 17 °F -17 °F (1905)
Degree Days  
Heating Degree Days 32    
Moisture  
Dew Point 8 °F    
Average Humidity 43    
Maximum Humidity 65    
Minimum Humidity 14    
Precipitation  
Precipitation 0.00 in 0.01 in 0.32 in (2001)
Month to date precipitation 0.01 0.12  
Year to date precipitation 0.01 0.12  
Sea Level Pressure  
Sea Level Pressure 30.10 in    
Wind  
Wind Speed 10 mph (WNW)    
Max Wind Speed 18 mph    
Max Gust Speed 23 mph    
Visibility 10 miles    
Events      
T = Trace of Precipitation, MM = Missing Value Source: NWS Daily Summary

Daily Weather History Graph

Daily Weather History Graph

Search for Another Location

Airport or City:

Trip Planner

Search our weather history database for the weather conditions in past years. The results will help you decide how hot, cold, wet, or windy it might be!

Date:

Astronomy

Jan. 13, 2012 Rise Set
Actual Time 7:07 AM MST 4:47 PM MST
Civil Twilight 6:38 AM MST 5:17 PM MST
Nautical Twilight 6:05 AM MST 5:50 PM MST
Astronomical Twilight 5:33 AM MST 6:22 PM MST
Moon 10:00 PM MST (1/13) 9:25 AM MST (1/13)
Length of Visible Light 10h 38m
Length of Day
9h 39m
Waning Gibbous, 78% of the Moon is Illuminated
Jan 13
Waning Gibbous
Jan 16
Last Quarter
Jan 23
New
Jan 30
First Quarter
Feb 7
Full

Hourly Weather History & Observations

Time (MST) Temp. Windchill Dew Point Humidity Pressure Visibility Wind Dir Wind Speed Gust Speed Precip Events Conditions
12:53 AM 21.9 °F 11.0 °F 10.0 °F 60% 30.13 in 10.0 mi West 10.4 mph - N/A   Mostly Cloudy
1:53 AM 21.9 °F 9.8 °F 10.0 °F 60% 30.12 in 10.0 mi West 12.7 mph - N/A   Mostly Cloudy
2:53 AM 21.0 °F 9.3 °F 9.0 °F 60% 30.10 in 10.0 mi West 11.5 mph - N/A   Clear
3:53 AM 24.1 °F 12.5 °F 10.0 °F 55% 30.08 in 10.0 mi West 12.7 mph - N/A   Mostly Cloudy
5:53 AM 21.0 °F 10.6 °F 9.0 °F 60% 30.12 in 10.0 mi West 9.2 mph - N/A   Clear
6:53 AM 17.1 °F 5.8 °F 7.0 °F 65% 30.14 in 10.0 mi West 9.2 mph - N/A   Clear
7:53 AM 19.9 °F 11.1 °F 9.0 °F 62% 30.12 in 10.0 mi West 6.9 mph - N/A   Clear
8:53 AM 28.9 °F 21.9 °F 12.0 °F 49% 30.11 in 10.0 mi West 6.9 mph - N/A   Clear
9:53 AM 37.0 °F 31.6 °F 7.0 °F 29% 30.08 in 10.0 mi NNW 6.9 mph - N/A   Clear
10:53 AM 39.0 °F 34.0 °F 5.0 °F 24% 30.07 in 10.0 mi NW 6.9 mph - N/A   Clear
11:53 AM 42.1 °F 35.7 °F 3.0 °F 20% 30.05 in 10.0 mi NNW 11.5 mph - N/A   Partly Cloudy
12:53 PM 45.0 °F 40.1 °F 1.9 °F 17% 30.03 in 10.0 mi NW 9.2 mph - N/A   Clear
1:53 PM 48.0 °F - 1.0 °F 14% 30.02 in 10.0 mi NW 18.4 mph 23.0 mph N/A   Mostly Cloudy
2:53 PM 46.9 °F - 5.0 °F 18% 30.04 in 10.0 mi NNW 12.7 mph 20.7 mph N/A   Partly Cloudy
3:53 PM 45.0 °F 41.2 °F 8.1 °F 22% 30.04 in 10.0 mi NW 6.9 mph - N/A   Clear
4:53 PM 34.0 °F 27.2 °F 7.0 °F 32% 30.08 in 10.0 mi West 8.1 mph - N/A   Clear
5:53 PM 26.1 °F 18.4 °F 6.1 °F 43% 30.13 in 10.0 mi West 6.9 mph - N/A   Clear
6:53 PM 21.9 °F 11.0 °F 5.0 °F 48% 30.15 in 10.0 mi WSW 10.4 mph - N/A   Clear
7:53 PM 25.0 °F 13.6 °F 8.1 °F 49% 30.14 in 10.0 mi WSW 12.7 mph - N/A   Clear
8:53 PM 28.0 °F 18.1 °F 10.0 °F 47% 30.11 in 10.0 mi West 11.5 mph - N/A   Clear
9:53 PM 25.0 °F 14.2 °F 10.0 °F 53% 30.11 in 10.0 mi West 11.5 mph - N/A   Clear
10:53 PM 28.9 °F 18.2 °F 10.0 °F 45% 30.12 in 10.0 mi WNW 13.8 mph - N/A   Clear
11:53 PM 25.0 °F 15.5 °F 10.0 °F 53% 30.13 in 10.0 mi WNW 9.2 mph - N/A   Clear